This is the latest recevied weather packets stored in our database for station/object K1RFS. If no packets are shown the sender has not sent any weather packets the latest 1 day(s).
| Time | Temp. | Humidity | Pressure | Rain* | Wind** | Luminosity | Snow |
|---|---|---|---|---|---|---|---|
| 1778031514 | 14.44° C | 46% | 994.5 hPa | 0 mm | 0.45 m/s, 179° | 64 W/m² | - |
| 1778031212 | 15° C | 45% | 994.8 hPa | 0 mm | 0.45 m/s, 185° | 73 W/m² | - |
| 1778030909 | 15° C | 44% | 994.6 hPa | 0 mm | 0 m/s | 83 W/m² | - |
| 1778030606 | 15° C | 45% | 994.5 hPa | 0 mm | 0.89 m/s, 219° | 92 W/m² | - |
| 1778030303 | 15° C | 45% | 994.5 hPa | 0 mm | 0.89 m/s, 191° | 101 W/m² | - |
| 1778029999 | 15.56° C | 44% | 994.5 hPa | 0 mm | 0 m/s | 110 W/m² | - |
| 1778029697 | 15.56° C | 44% | 994.9 hPa | 0 mm | 0 m/s | 120 W/m² | - |
| 1778029395 | 15.56° C | 45% | 994.6 hPa | 0 mm | 0.45 m/s, 188° | 130 W/m² | - |
| 1778029092 | 16.11° C | 44% | 994.8 hPa | 0 mm | 0.89 m/s, 183° | 139 W/m² | - |
| 1778028788 | 16.67° C | 43% | 994.6 hPa | 0 mm | 0.45 m/s, 187° | 146 W/m² | - |
| 1778028484 | 16.11° C | 44% | 994.5 hPa | 0 mm | 1.34 m/s, 185° | 157 W/m² | - |
| 1778028182 | 16.11° C | 43% | 994.6 hPa | 0 mm | 0 m/s | 170 W/m² | - |
| 1778027878 | 16.67° C | 43% | 994.5 hPa | 0 mm | 0.89 m/s, 195° | 128 W/m² | - |
| 1778027575 | 16.11° C | 44% | 994.6 hPa | 0 mm | 0.45 m/s, 187° | 193 W/m² | - |
| 1778027271 | 16.11° C | 44% | 994.6 hPa | 0 mm | 0.45 m/s, 190° | 203 W/m² | - |
| 1778026967 | 16.67° C | 43% | 994.9 hPa | 0 mm | 0 m/s | 213 W/m² | - |
| 1778026663 | 16.67° C | 43% | 994.6 hPa | 0 mm | 0 m/s | 223 W/m² | - |
| 1778026361 | 16.67° C | 44% | 994.6 hPa | 0 mm | 0.89 m/s, 183° | 237 W/m² | - |
| 1778026057 | 16.11° C | 44% | 994.9 hPa | 0 mm | 0 m/s | 247 W/m² | - |
| 1778025755 | 16.11° C | 43% | 994.8 hPa | 0 mm | 0.45 m/s, 192° | 259 W/m² | - |
| 1778025452 | 16.67° C | 44% | 994.5 hPa | 0 mm | 0.45 m/s, 186° | 270 W/m² | - |
| 1778025150 | 16.67° C | 42% | 994.9 hPa | 0 mm | 0.45 m/s, 186° | 280 W/m² | - |
| 1778024846 | 16.67° C | 43% | 994.9 hPa | 0 mm | 0.45 m/s, 187° | 293 W/m² | - |
| 1778024544 | 16.67° C | 44% | 994.8 hPa | 0 mm | 0 m/s | 306 W/m² | - |
| 1778024240 | 16.67° C | 44% | 994.8 hPa | 0 mm | 0 m/s | 316 W/m² | - |
* Rain latest hour (hover to see other rain measurements)
** Current wind speed in m/s (hover to see current wind gust speed)